Location: ????
(30.1475°N, 31.1342°E)
Time: 03:58:49
(UTC+00:00)

ARIANE 5 R/B - Pass Details

Date: 27 September 2022
Orbit: 748 x 794 km, 98.7° (Epoch: 30 November)

Event Time Altitude Azimuth Distance (km) Brightness Sun altitude
Rises 02:12:36 0° 3° (N) 3,220 5.9 -21.0°
Reaches altitude 10° 02:15:00 10° 357° (N) 2,286 5.0 -20.5°
Maximum altitude 02:19:43 42° 287° (WNW) 1,064 2.8 -19.5°
Enters shadow 02:20:38 38° 260° (W) 1,133 2.8 -19.3°
